{"data":{"norad_id":58208,"intl_designator":"2023-170C","name":"STARLINK-30841","alt_names":[],"object_type":"PAYLOAD","status":"ACTIVE","operator":null,"country":"US","launch_date":"2023-11-03","launch_site_code":"AFETR","launch_vehicle":null,"mission":null,"orbit_class":"UNKNOWN","rcs_meters":null,"size_class":null,"mass_kg":null,"dimensions":null,"purposes":["comms"],"wikipedia_slug":null,"has_3d_model":false,"image_url":null,"decayed_at":null,"tle_current":{"epoch":"2026-05-24T23:25:24.337632Z","epoch_age_seconds":91330,"freshness":"FRESH","line1":"1 58208U 23170C   26144.97597613 -.00000158  00000+0  38040-5 0  9994","line2":"2 58208  43.0036 123.6269 0001447 280.7434  79.3255 15.27578189141969","mean_motion":15.27578189,"eccentricity":0.0001447,"inclination_deg":43.0036,"raan_deg":123.6269,"arg_perigee_deg":280.7434,"mean_anomaly_deg":79.3255,"bstar":3.804e-6,"rev_number":14196,"period_min":94.266860470342,"perigee_km":482.06170441774,"apogee_km":484.04733324329,"semimajor_km":6861.1915188305,"source":"CELESTRAK","updated_at":"2026-05-25T13:38:18.574283Z"}}}